Temp
24 24 25 26 33 36 33 33 34 34 34 34 34 33 33 32 32 30 28 28 27 26 24 22 22 21 21 21 21 21 21 21 21 21 22 21 21 22 21 21 22 22 22 21 21 21 22 22 21
26 26 27 33 36 35 33 34 33 33 33 34 34 33 32 31 31 28 28 27 27 27 25 24 22 22 21 21 21 21 21 22 22 22 22 21 22 21 21 21 21 21 21 21 21 21 21 21 21
27 27 34 35 36 34 34 34 34 33 33 34 33 34 33 30 29 29 28 27 27 26 26 23 22 22 21 21 21 22 22 22 22 22 21 22 22 21 21 21 21 21 21 21 21 21 21 21 21
30 32 34 36 35 35 35 34 34 34 34 34 34 32 30 28 28 29 27 27 27 27 26 22 22 22 21 21 21 22 22 22 22 22 22 21 21 21 21 21 21 21 21 21 21 21 21 21 21
32 35 37 36 35 35 35 35 34 34 34 34 34 32 30 28 28 27 27 27 27 27 26 23 22 22 22 21 21 21 21 22 21 21 22 21 21 21 22 21 21 21 21 21 21 21 21 21 21
37 36 37 36 35 36 36 35 35 35 34 33 33 33 30 28 28 28 27 28 28 27 26 24 22 21 21 21 21 21 21 21 21 22 22 22 22 21 21 21 21 21 21 21 21 21 21 21 21
36 37 36 37 36 36 35 36 35 35 34 34 34 32 31 29 28 28 28 28 28 27 27 24 23 22 21 21 21 21 21 21 21 21 21 22 22 22 22 21 21 21 21 21 21 21 21 21 21
36 36 37 37 36 35 36 36 35 35 34 35 35 32 31 30 28 28 28 28 28 27 26 25 24 24 23 23 21 21 21 21 21 21 21 21 21 21 21 21 22 22 21 21 21 21 21 21 21
36 37 36 37 37 36 36 36 35 35 34 34 34 34 33 28 28 28 28 28 27 27 27 26 25 24 24 25 23 21 21 21 21 21 21 21 21 21 22 22 22 22 22 22 21 21 21 21 20
37 37 36 37 38 37 36 36 35 35 35 33 32 32 30 28 28 29 29 29 28 27 27 27 27 26 25 25 25 23 24 24 24 24 22 22 21 22 22 22 22 21 21 21 21 21 21 21 24
37 37 37 38 38 38 37 36 37 36 35 36 34 31 31 29 29 30 29 29 29 27 27 27 27 26 26 25 25 25 25 25 24 23 22 21 22 22 21 22 22 23 22 23 22 23 22 23 24
36 37 38 38 38 37 36 38 36 37 36 36 35 32 32 31 31 31 31 30 29 28 27 27 26 25 24 25 25 25 25 26 25 26 23 22 22 22 21 22 22 22 22 23 22 22 23 23 24
37 38 39 39 38 38 37 37 37 36 36 36 34 32 32 33 32 32 31 30 28 27 27 26 25 24 24 23 25 25 25 26 26 26 24 22 24 24 22 21 21 21 21 21 21 21 23 22 23
37 38 39 39 38 38 37 36 36 37 35 34 33 33 33 33 33 32 31 30 29 28 27 27 25 24 24 24 23 24 24 25 25 25 25 24 23 24 22 22 21 21 21 21 22 21 22 23 24
37 38 39 39 38 38 37 35 35 37 35 34 34 33 33 33 33 32 31 29 29 28 27 27 26 25 23 24 24 24 25 25 25 25 24 23 23 23 22 23 22 21 22 21 21 21 21 22 22
37 38 37 38 38 37 37 37 37 36 35 35 35 34 33 33 32 32 31 30 28 28 27 24 25 26 25 24 24 24 25 25 25 25 25 24 23 23 22 22 23 22 21 21 22 21 22 22 21
38 37 37 37 38 37 37 38 35 36 36 35 35 34 33 33 32 31 31 30 29 28 27 23 24 25 25 24 24 24 24 24 24 25 25 24 24 23 23 23 23 23 23 22 22 22 22 22 21
36 37 37 37 37 37 38 38 35 35 36 35 36 35 34 33 33 31 30 30 29 28 27 26 25 25 23 24 23 24 24 24 24 24 25 24 24 23 23 24 23 23 23 22 22 23 22 23 22
36 37 37 37 36 36 36 37 36 35 35 35 36 35 35 34 34 32 30 30 29 28 27 26 26 25 23 24 24 24 25 26 24 25 23 23 23 23 23 23 24 23 23 24 23 23 23 23 23
37 37 37 37 36 36 36 37 36 36 35 35 35 36 35 35 34 32 31 30 28 28 27 26 25 25 23 24 25 25 24 24 23 22 21 21 21 22 22 23 24 24 24 24 23 23 23 23 23
37 37 37 36 36 36 36 37 37 36 34 35 35 36 36 35 35 35 33 30 29 27 27 26 25 24 24 24 23 22 22 22 23 23 23 23 23 23 22 22 22 22 22 23 23 23 23 22 23
37 38 37 36 36 37 36 36 38 38 36 34 35 35 36 36 35 35 35 33 30 28 27 26 25 24 23 23 24 24 24 25 25 23 22 21 21 21 21 20 21 21 22 22 23 24 24 23 23
37 37 37 36 37 37 37 36 38 36 36 36 36 36 36 37 37 36 35 34 32 29 27 26 25 24 24 24 25 24 23 24 25 24 23 23 23 22 21 21 21 20 21 21 22 23 23 22 23
37 37 37 37 38 36 37 36 38 38 37 37 36 37 37 37 36 35 34 32 30 29 27 26 25 24 24 24 23 23 24 24 25 25 24 25 24 24 23 21 21 21 20 21 21 22 22 23 23
36 37 36 36 36 36 38 36 38 39 38 36 36 36 36 36 36 35 34 32 29 28 27 26 25 24 24 24 24 24 24 23 23 23 25 23 25 24 23 21 21 20 20 20 20 21 22 22 22
37 38 37 34 36 37 37 36 38 37 36 35 37 37 37 36 35 35 33 31 30 29 27 27 25 25 24 24 24 23 23 25 24 24 23 24 24 24 22 21 21 19 19 20 20 20 21 21 21
37 36 39 38 38 36 38 38 39 38 35 35 36 36 36 35 34 34 33 31 29 28 27 27 26 25 25 24 23 23 23 23 23 22 22 24 23 23 22 21 21 20 19 19 20 20 21 21 22
37 39 37 38 35 34 37 36 37 36 35 35 35 35 36 34 34 33 32 31 30 29 28 27 27 26 25 24 24 24 23 23 23 23 23 23 23 23 23 22 21 21 20 19 19 19 19 20 20
36 37 38 38 37 36 36 37 38 37 37 36 36 36 36 34 34 33 32 30 30 29 28 27 27 26 25 25 24 24 24 24 24 24 24 23 23 22 23 22 22 21 21 21 19 19 19 19 20
39 38 39 37 36 37 36 37 38 37 36 37 37 36 36 35 34 32 31 30 29 28 28 27 27 26 26 25 24 24 24 24 25 25 24 24 23 23 22 22 23 23 23 21 21 20 20 20 20
Height
769 770 771 768 769 760 782 784 764 770 769 761 761 768 773 773 781 802 794 798 804 810 817 820 822 825 826 828 830 832 834 835 836 838 839 840 840 841 842 842 843 844 845 845 846 847 848 849 849
771 772 770 756 767 784 789 769 776 769 765 760 764 768 773 782 779 789 795 801 806 811 816 820 823 825 827 829 831 833 835 837 839 840 841 841 842 844 844 844 845 846 847 848 848 849 850 850 851
772 771 760 762 770 789 789 771 770 767 764 764 769 765 771 784 787 790 795 802 806 812 816 821 823 826 828 830 832 835 837 839 841 842 843 844 845 846 845 846 847 848 849 849 850 851 851 852 853
768 765 757 768 782 776 772 770 766 766 762 762 764 778 781 787 789 791 798 803 807 812 817 821 824 827 829 831 833 836 838 841 843 844 846 847 848 848 848 849 849 850 851 851 851 852 853 854 854
766 756 766 776 780 771 765 763 763 766 766 765 765 781 785 789 791 795 801 805 808 813 818 823 826 829 831 832 834 836 839 842 843 845 847 848 849 850 850 851 851 852 852 852 853 853 854 855 856
758 756 774 786 780 768 764 761 762 765 766 769 774 777 787 791 793 797 802 806 810 814 819 824 827 830 832 835 837 839 841 843 844 846 847 849 850 851 851 852 852 853 853 854 854 854 855 856 856
766 762 778 774 778 773 768 758 764 766 769 771 769 781 786 791 795 800 804 808 812 816 820 825 828 831 833 836 838 840 842 844 845 846 848 849 851 851 852 853 853 854 855 855 855 855 856 856 856
760 765 773 772 778 781 764 761 760 764 773 765 766 782 788 789 796 801 806 810 813 818 821 825 828 831 834 837 838 841 843 845 846 847 849 850 851 851 852 853 853 854 855 855 855 856 856 856 856
760 773 783 777 772 772 762 766 760 760 768 768 770 771 774 791 797 801 806 810 815 819 821 824 828 831 834 837 838 840 842 844 846 848 850 851 851 851 850 851 853 854 854 854 854 854 855 855 856
763 775 779 763 759 765 764 762 765 768 769 774 778 778 784 791 797 801 804 807 812 817 821 824 827 830 834 836 839 841 842 844 845 847 849 849 849 849 850 851 851 851 852 853 852 852 853 853 853
767 778 764 759 756 753 761 763 758 766 773 766 774 782 786 792 796 799 804 807 811 817 821 824 827 830 833 836 838 840 841 842 844 846 847 848 847 848 849 850 850 849 849 850 848 849 850 850 850
776 762 760 757 754 757 763 754 762 761 766 760 767 779 784 789 792 795 799 804 811 816 820 823 826 830 832 834 836 838 839 841 842 841 844 844 846 848 847 848 847 848 847 847 847 847 847 847 847
772 761 755 752 753 754 754 761 762 763 761 763 772 780 783 786 790 793 798 805 810 815 818 821 825 828 830 832 834 836 837 839 840 840 841 843 843 842 843 844 844 845 845 844 845 843 844 844 845
765 762 756 752 753 754 762 763 765 760 762 769 774 780 782 785 788 794 798 803 808 812 816 819 823 826 829 831 833 834 836 837 838 838 839 839 840 839 840 840 840 840 842 840 842 842 842 841 841
763 768 756 756 756 759 756 774 773 758 763 770 772 778 781 784 787 792 797 803 807 811 814 818 822 825 828 831 832 833 834 834 835 836 837 836 836 834 836 837 837 836 837 838 837 839 838 838 838
770 765 780 760 758 761 763 777 761 760 764 769 770 777 781 784 788 792 796 801 805 808 813 817 819 823 826 828 830 831 831 831 832 833 833 833 832 832 832 832 832 833 834 833 835 834 835 834 835
770 784 784 774 760 763 764 769 767 760 763 769 769 774 780 783 788 791 795 799 803 807 812 815 816 820 823 825 826 826 828 829 830 830 830 829 829 829 829 828 828 828 829 829 830 830 830 831 831
789 783 780 783 770 762 764 765 766 764 763 767 767 771 776 780 782 788 793 796 799 803 808 812 815 818 820 821 823 823 824 825 826 826 825 825 825 824 824 823 823 823 824 824 824 825 825 826 826
778 780 782 772 768 771 773 769 765 764 765 766 765 768 769 776 779 784 790 793 797 800 804 807 810 813 815 816 818 820 820 821 822 822 820 820 821 822 821 819 818 818 819 817 818 820 821 822 822
776 780 775 769 768 773 771 769 763 762 763 762 764 764 766 770 774 781 786 790 794 797 801 805 807 810 812 814 816 818 819 820 821 819 816 816 817 817 819 816 813 812 812 812 813 815 815 816 818
773 777 777 783 771 767 771 772 766 760 762 761 760 760 760 766 769 772 780 786 790 795 799 803 806 808 810 811 814 817 817 818 818 818 814 813 813 814 815 812 808 805 806 806 806 809 810 812 813
779 761 771 778 783 787 769 793 765 757 763 766 761 761 759 761 765 768 770 778 786 792 796 799 803 806 808 809 811 813 814 815 814 814 812 811 810 810 809 805 803 801 799 798 799 801 803 806 807
773 763 770 773 773 776 777 788 766 760 764 761 759 755 757 756 759 762 767 773 779 787 793 797 800 803 805 807 809 811 812 812 813 812 811 809 808 807 806 802 799 795 793 792 792 794 796 797 801
757 769 769 768 767 793 774 786 771 760 759 755 754 752 754 754 758 763 768 774 779 784 790 795 799 800 801 804 806 808 809 810 811 811 810 809 808 806 804 801 797 792 788 787 787 789 790 792 794
764 769 791 800 793 796 765 784 766 748 747 753 752 752 752 754 757 762 768 774 779 783 786 792 797 799 800 802 804 807 808 809 810 810 808 809 807 805 803 799 794 790 785 782 782 783 786 787 789
763 759 779 809 798 781 768 789 762 746 745 748 744 746 749 755 760 763 769 774 778 782 786 792 797 800 801 801 804 806 808 809 810 810 809 807 806 803 801 797 793 788 784 781 780 780 782 784 785
757 775 743 765 765 786 767 757 741 740 751 752 750 750 752 756 761 764 769 773 778 781 784 789 795 798 800 802 803 806 808 808 809 809 808 807 805 803 799 794 791 789 785 783 780 778 780 782 784
750 739 771 764 803 808 774 776 769 756 756 753 754 752 750 757 762 764 769 773 776 779 784 788 793 797 802 804 804 804 805 807 807 807 807 806 805 802 798 794 791 789 786 783 782 782 782 783 782
759 760 755 751 763 788 790 771 738 746 742 747 745 746 746 755 760 764 769 773 777 780 785 789 793 796 799 803 806 807 807 806 806 806 806 806 804 802 799 795 792 789 786 784 782 781 781 782 781
731 742 741 770 777 764 770 768 730 737 738 734 739 742 744 751 758 765 771 776 780 783 786 789 792 794 797 800 804 806 807 806 805 805 805 805 804 802 800 796 793 789 786 783 781 780 780 780 779
Wind_Speed
7 6 1 4 3 7 11 8 5 6 4 3 7 1 5 6 7 5 18 17 25 24 22 20 17 16 17 17 18 17 17 16 14 11 11 11 14 13 13 13 12 12 13 13 13 13 14 14 13
4 2 4 4 5 11 10 6 9 9 8 6 7 3 2 9 10 13 20 23 26 24 23 20 18 17 18 17 18 17 16 15 13 11 11 12 12 13 11 11 11 11 12 12 13 13 13 13 13
3 3 4 1 11 11 12 9 8 8 4 3 4 4 3 5 6 18 21 27 26 23 22 20 19 18 18 17 18 17 14 13 12 11 10 11 11 11 11 11 9 11 11 11 10 11 11 12 11
4 5 4 9 16 11 12 6 6 3 7 3 4 7 7 7 9 12 28 27 25 23 21 21 19 19 17 18 18 17 15 13 11 10 9 9 9 10 9 8 8 8 7 8 8 8 9 10 10
5 4 6 11 13 10 8 6 4 5 5 5 1 7 6 9 11 23 27 25 24 22 21 21 19 19 17 16 17 16 15 13 11 9 8 7 8 7 8 7 6 6 6 5 6 8 8 8 7
4 4 7 10 10 8 6 3 2 6 6 6 7 10 7 9 17 25 25 23 21 21 21 20 19 17 16 15 15 15 14 12 11 10 8 6 6 5 5 5 6 5 6 6 5 5 8 7 5
5 5 8 9 7 8 7 4 2 5 3 7 7 7 8 10 17 22 23 20 20 20 20 19 17 16 15 14 13 13 12 11 9 8 9 9 7 7 5 4 4 4 5 6 6 7 7 8 6
4 4 5 6 8 10 7 5 2 2 8 9 2 4 10 16 21 21 20 19 19 18 18 18 17 16 14 12 13 12 11 10 9 8 8 7 6 5 5 4 4 5 6 7 7 8 8 8 8
2 3 5 7 6 10 7 5 3 3 6 2 3 1 14 22 22 22 21 19 18 18 18 18 17 16 14 12 11 10 10 9 9 7 7 6 6 6 8 7 7 7 8 8 9 10 10 10 9
4 3 6 7 8 5 5 3 7 5 4 5 6 10 22 24 22 21 22 21 22 20 19 17 17 16 13 10 9 10 10 9 9 9 8 11 10 12 16 13 13 12 10 10 9 12 11 11 12
2 4 7 5 7 2 2 5 5 3 4 1 7 15 19 21 20 20 20 20 20 19 18 16 15 14 13 11 9 9 10 10 11 11 11 9 11 15 15 12 12 11 11 11 11 11 13 15 16
4 2 5 7 5 1 4 3 4 5 7 2 10 16 18 17 17 20 20 19 17 17 17 16 16 15 14 12 11 10 10 9 9 9 10 12 13 13 15 16 16 12 14 9 12 9 13 14 16
5 9 8 7 5 5 4 7 1 3 6 11 14 16 17 16 16 17 16 15 14 16 16 17 16 16 16 16 12 10 10 10 10 10 9 11 12 13 12 13 14 15 15 13 12 13 13 13 16
9 10 8 3 3 2 5 2 2 5 10 13 15 15 15 15 15 14 14 16 18 16 16 15 15 15 15 15 14 11 10 9 10 11 9 10 12 12 11 11 13 15 17 14 11 9 11 14 15
8 6 3 9 4 1 3 6 7 8 13 14 14 14 13 13 16 15 14 13 14 14 13 12 11 12 13 13 13 12 11 10 10 11 10 12 12 13 12 13 14 15 16 13 16 14 16 12 13
4 6 5 6 8 3 6 3 8 9 13 14 13 12 12 12 13 13 12 14 14 13 13 12 10 10 12 12 11 11 10 10 10 10 11 11 13 13 13 16 16 13 11 14 12 16 15 16 14
5 3 3 1 3 7 7 5 5 8 11 11 12 12 11 11 12 13 13 12 13 12 13 15 15 11 10 10 11 11 9 8 9 10 11 12 14 15 16 16 18 14 14 14 14 13 16 15 16
2 4 2 5 7 4 6 7 3 6 9 10 11 10 11 11 10 12 13 12 12 13 13 14 15 12 9 8 9 9 8 8 8 11 12 13 14 15 16 18 19 19 18 19 17 16 15 16 13
5 6 6 4 5 7 4 5 2 4 8 9 10 11 10 10 9 8 9 10 11 11 12 12 12 13 12 11 10 9 10 8 9 11 12 11 10 11 14 16 19 20 19 20 18 17 16 16 15
7 7 4 2 4 4 1 4 2 5 8 9 9 9 8 8 8 9 9 10 11 11 10 10 12 13 12 9 10 7 8 6 5 4 3 1 2 8 16 19 20 22 23 20 19 18 18 17 14
11 8 6 8 4 4 5 10 5 5 6 7 10 8 7 8 8 9 11 11 12 12 11 10 11 13 12 10 10 8 7 5 4 2 4 1 4 13 21 23 24 26 24 25 23 21 20 16 14
14 5 4 6 5 2 2 5 6 3 8 7 9 9 8 8 9 7 7 13 14 14 13 11 12 13 12 13 11 11 11 6 4 8 11 13 10 12 15 17 19 25 28 27 25 22 22 19 18
11 1 4 4 7 5 9 6 1 3 7 10 9 9 8 6 5 6 5 6 12 16 16 14 13 14 12 12 8 10 10 9 7 6 7 7 8 10 13 15 19 22 27 25 25 22 24 22 21
3 8 7 6 7 9 7 5 5 5 4 2 10 10 9 8 6 5 5 8 12 16 17 16 15 14 13 11 10 10 8 7 5 3 5 7 9 10 11 15 16 18 19 23 23 22 21 20 19
10 13 9 10 9 8 6 5 6 5 4 1 12 12 11 9 9 7 7 9 13 17 19 17 15 14 13 13 11 8 7 6 3 4 5 8 9 11 14 16 16 15 15 14 17 19 19 20 19
17 16 12 7 10 4 6 6 3 4 2 3 11 14 12 10 7 7 6 8 12 15 15 14 16 13 12 12 10 9 7 3 1 3 6 9 11 13 15 14 14 15 14 13 13 17 16 16 17
9 10 9 9 7 9 11 3 11 6 4 7 12 13 13 12 9 9 10 10 13 14 15 16 15 14 13 12 11 9 6 3 2 4 6 8 9 12 15 13 12 12 10 8 7 4 5 8 12
7 1 9 9 9 9 4 4 5 2 8 11 14 15 15 14 11 11 11 14 15 16 16 16 15 13 11 11 10 8 5 1 2 4 6 7 9 11 14 14 11 10 9 8 9 8 8 11 12
7 10 8 10 5 7 6 2 8 2 2 14 15 16 16 16 13 12 11 13 15 17 18 17 15 16 15 10 8 7 5 4 3 3 4 5 7 9 11 13 13 13 10 8 7 8 11 14 13
8 9 11 9 12 7 7 4 7 2 2 10 13 15 17 15 15 13 14 14 15 15 17 17 17 17 15 13 11 9 7 5 4 3 1 2 4 7 9 11 13 14 13 11 9 10 10 11 14
Wind_Direction
144 152 189 228 207 76 55 63 39 80 95 38 124 31 35 25 4 48 137 146 147 147 152 148 154 148 145 146 144 141 140 138 134 132 125 130 122 123 126 126 122 122 118 121 119 118 116 116 116
171 197 217 277 57 65 68 59 59 65 74 119 123 124 75 82 64 120 136 147 148 146 150 151 153 148 147 146 146 142 142 137 140 135 134 133 123 128 126 128 126 127 123 119 119 119 120 118 113
209 262 287 30 53 55 67 57 94 92 70 128 107 13 26 58 81 144 142 149 147 147 150 155 153 149 149 146 149 146 145 141 138 136 135 131 127 127 132 131 134 130 126 124 122 122 126 116 114
282 191 236 63 74 66 62 75 83 88 89 88 83 82 101 41 142 145 145 151 148 149 151 157 152 156 150 152 153 154 152 143 148 146 141 129 130 126 128 133 130 133 130 124 125 130 131 130 124
250 251 102 76 80 86 81 73 85 91 77 60 312 103 89 81 127 142 149 155 152 151 152 155 151 156 154 157 158 160 157 158 158 149 143 134 127 128 137 137 144 145 138 134 142 143 144 145 141
235 263 79 70 70 87 93 96 54 60 65 97 105 108 83 115 139 148 153 158 156 153 154 158 159 163 161 161 165 166 165 166 162 159 151 148 145 146 136 142 155 141 156 159 155 153 163 172 168
326 324 67 76 81 103 99 150 37 67 88 84 131 100 110 138 146 153 157 159 158 160 157 159 162 163 166 166 172 175 176 178 174 172 172 170 169 159 161 163 168 174 180 180 184 185 187 193 191
322 295 94 73 57 86 122 146 146 31 67 112 126 118 163 145 153 156 159 162 163 166 164 165 166 167 169 176 177 179 183 187 189 188 183 183 172 182 190 210 210 212 211 206 202 203 211 214 211
309 268 78 46 38 83 137 143 148 95 123 116 99 37 115 147 155 159 163 168 171 177 177 175 171 173 174 178 192 189 197 198 203 202 200 203 199 214 221 240 255 246 243 232 228 225 221 220 217
302 348 18 329 310 10 159 189 141 175 143 137 99 106 132 148 160 167 173 175 182 183 189 187 184 183 183 187 192 204 210 215 218 223 217 217 216 234 250 249 253 251 249 249 248 238 229 228 233
23 8 344 334 343 309 207 189 168 171 162 102 141 146 149 154 166 174 182 185 188 186 191 199 198 200 203 207 207 214 218 224 229 233 236 230 232 235 243 247 251 244 241 245 240 238 234 229 231
283 307 306 308 352 264 207 196 185 208 72 68 123 155 158 166 173 179 182 184 183 188 196 199 203 206 210 212 216 220 224 228 238 232 224 238 245 245 252 249 247 253 250 254 260 260 239 236 237
259 329 320 313 298 248 199 220 239 168 91 117 132 158 169 174 172 176 177 165 182 191 198 203 205 209 210 209 216 222 224 233 245 250 240 242 253 253 252 258 254 247 251 246 260 257 241 235 238
332 303 314 343 92 168 236 247 230 149 139 140 146 163 174 180 179 170 178 181 191 194 197 201 206 211 213 214 215 219 228 238 250 257 258 256 249 260 261 262 260 263 255 251 251 248 240 239 236
297 284 204 48 38 94 245 215 218 145 162 155 157 166 172 183 187 193 188 193 197 201 198 204 209 215 219 220 221 225 233 243 250 256 260 263 262 257 262 267 267 258 253 252 249 253 247 242 244
274 253 247 67 7 101 232 327 110 171 176 171 162 167 179 185 196 196 202 194 201 205 192 190 214 220 223 225 226 231 232 240 251 258 267 271 274 274 272 267 267 251 247 238 250 238 245 241 238
226 193 272 332 47 320 232 338 68 175 186 183 178 170 179 193 205 207 214 214 213 215 196 208 216 218 221 225 225 229 232 242 261 271 270 274 279 284 279 271 268 266 253 240 237 241 235 244 242
101 235 235 340 19 316 273 268 62 174 204 192 193 175 184 194 195 199 214 221 221 220 213 210 211 209 206 210 216 217 218 229 241 255 264 269 277 284 279 270 268 268 259 247 238 240 237 242 245
292 283 295 30 10 304 327 302 306 195 201 206 201 189 191 190 195 180 196 209 213 215 213 210 205 202 199 202 205 211 213 215 249 269 270 268 273 286 280 270 263 264 258 253 242 238 244 244 237
257 277 290 132 10 268 300 285 257 212 220 217 216 213 204 201 192 195 194 194 198 200 197 203 203 198 203 209 208 206 192 224 289 312 341 199 341 320 292 276 266 261 253 252 252 234 235 242 229
236 274 354 332 327 236 269 240 229 184 216 215 227 223 219 217 222 189 186 199 190 186 181 192 198 194 192 201 190 189 203 236 246 278 118 10 316 286 282 281 272 266 257 251 245 237 229 227 231
259 123 291 305 271 261 267 316 203 237 223 202 208 210 212 205 208 228 199 183 192 184 180 183 192 200 205 195 190 197 207 208 220 260 292 297 293 300 303 297 289 276 264 251 246 237 234 224 232
271 277 305 285 236 235 167 273 344 169 255 212 202 181 192 193 199 192 172 155 182 181 178 177 174 180 182 187 200 198 218 227 267 284 295 313 327 323 319 317 301 285 265 257 248 237 222 220 226
115 236 231 232 261 243 97 287 282 39 8 132 181 171 165 169 147 155 136 152 162 168 168 168 168 177 178 180 183 198 213 229 257 280 316 316 311 315 324 330 318 301 280 261 250 240 226 222 225
218 236 231 213 207 242 102 243 309 14 330 199 181 168 163 167 158 149 146 149 158 165 165 172 175 177 178 176 174 191 193 184 201 291 314 314 311 314 315 326 333 327 313 279 252 236 228 221 223
212 235 245 241 257 283 151 260 356 55 82 162 182 161 170 159 124 127 133 143 154 163 160 169 180 179 179 174 168 155 151 161 262 317 331 317 321 322 319 315 327 339 340 322 268 240 226 232 230
171 223 279 298 236 264 270 196 250 194 153 154 159 173 175 142 144 141 136 139 147 152 156 164 172 164 160 156 147 136 127 103 0 349 346 348 343 337 333 322 323 332 326 311 320 341 219 241 244
279 155 207 221 268 267 243 246 282 137 193 181 175 187 167 148 152 144 140 145 141 138 143 148 151 147 143 145 146 142 134 95 47 14 6 357 349 349 348 345 324 325 316 302 277 269 272 268 264
183 223 233 300 314 297 254 123 77 8 230 191 185 190 166 164 161 157 151 150 143 142 145 146 147 144 142 144 158 167 165 142 96 49 15 356 358 355 358 357 349 328 319 301 271 264 258 258 270
287 243 242 232 203 237 318 326 103 12 273 189 186 181 168 175 163 161 158 152 149 146 148 150 154 154 155 154 161 164 156 149 130 133 116 355 0 353 352 356 351 347 343 316 278 271 257 257 258